Starlink 33546

operational
NORAD ID: 62287 Int'l Des: 2024-237 Owner: SPXS Country: US Constellation: starlink
LEOCIRCULAR

关于 Starlink 33546

正在加载描述...

实时位置

正在加载3D地球...

即将过境

高度历史

Altitude vs Time

uPlot chart will show altitude changes over time

两行轨道根数

1 62287U 24237W 25258.33676099 .00072821 00000-0 26267-2 0 9993
2 62287 42.9996 126.6890 0000891 275.3076 84.7674 15.27618728 44287
Epoch: Sep 15, 2025 • Age: 16 hours

当前状态

高度 482.1 km
速度 7.63 km/s
星下点 5.34°N, 65.99°W
发射日期 Dec 8, 2024
运行时间 0.7 years
类型 internet

技术详情

分类 Payload
质量 530.00 kg
干质量 500.00 kg
总质量 530.00 kg
长度 0.30 m
直径 4.10 m
跨度 29.00 m
形状 Box + pan
制造商 SPXS
平台类型 Starlink V2MO
阶段状态 In Orbit
所有者/国家 SPXS/US

大型星座

Loading constellations...